This is the latest recevied weather packets stored in our database for station/object K4IR. If no packets are shown the sender has not sent any weather packets the latest 10 day(s).
| Time | Temp. | Humidity | Pressure | Rain* | Wind** | Luminosity | Snow |
|---|---|---|---|---|---|---|---|
| 1787787638 | 26.11° C | 89% | 1016.9 hPa | 0 mm | - | 4 W/m² | - |
| 1787787037 | 26.67° C | 87% | 1016.8 hPa | 0 mm | - | 9 W/m² | - |
| 1787786437 | 26.67° C | 86% | 1016.9 hPa | 0 mm | - | 20 W/m² | - |
| 1787785835 | 27.22° C | 84% | 1017 hPa | 0 mm | - | 33 W/m² | - |
| 1787785230 | 27.22° C | 83% | 1017 hPa | 0 mm | - | 44 W/m² | - |
| 1787784629 | 27.78° C | 83% | 1017 hPa | 0 mm | - | 65 W/m² | - |
| 1787784029 | 27.78° C | 82% | 1016.8 hPa | 0 mm | - | 80 W/m² | - |
| 1787783425 | 27.78° C | 82% | 1017 hPa | 0 mm | - | 87 W/m² | - |
| 1787782821 | 27.78° C | 81% | 1017.1 hPa | 0 mm | - | 92 W/m² | - |
| 1787782222 | 28.33° C | 81% | 1017 hPa | 0 mm | - | 100 W/m² | - |
| 1787781618 | 28.33° C | 79% | 1017.1 hPa | 0 mm | - | 110 W/m² | - |
| 1787781014 | 28.33° C | 79% | 1016.9 hPa | 0 mm | - | 132 W/m² | - |
| 1787780415 | 28.33° C | 78% | 1017.2 hPa | 0 mm | - | 129 W/m² | - |
| 1787779812 | 28.33° C | 76% | 1017.2 hPa | 0 mm | - | 134 W/m² | - |
| 1787779211 | 28.33° C | 77% | 1017.1 hPa | 0 mm | - | 155 W/m² | - |
| 1787778607 | 28.89° C | 76% | 1017 hPa | 0 mm | - | 197 W/m² | - |
| 1787778003 | 28.89° C | 73% | 1017.2 hPa | 0 mm | - | 194 W/m² | - |
| 1787777400 | 29.44° C | 71% | 1017 hPa | 0 mm | - | 165 W/m² | - |
| 1787776799 | 29.44° C | 73% | 1017 hPa | 0 mm | - | 222 W/m² | - |
| 1787776195 | 30° C | 71% | 1017 hPa | 0 mm | - | 301 W/m² | - |
| 1787775591 | 30° C | 70% | 1017.1 hPa | 0 mm | - | 171 W/m² | - |
| 1787774989 | 29.44° C | 69% | 1016.9 hPa | 0 mm | - | 173 W/m² | - |
| 1787774388 | 30.56° C | 68% | 1016.9 hPa | 0 mm | - | 351 W/m² | - |
| 1787773787 | 30° C | 69% | 1017.1 hPa | 0 mm | - | 334 W/m² | - |
| 1787773184 | 30° C | 67% | 1017 hPa | 0 mm | - | 200 W/m² | - |
* Rain latest hour (hover to see other rain measurements)
** Current wind speed in m/s (hover to see current wind gust speed)